Regional Weather Roundup
Issued by NWS

Home | Current Version | Previous Version | Text Only | Print | Product List | Glossary On
Versions: 1 2 3 4 5 6 7 8 9 10 11 12 13 14 15 16 17 18 19 20 21 22 23 24 25 26 27 28 29 30 31 32 33 34 35 36 37 38 39 40 41 42 43 44 45 46 47 48 49 50
000
ASPQ40 PGUM 201912
RWRPQ
WEATHER ROUNDUP FOR THE MARIANAS AND MICRONESIA
NATIONAL WEATHER SERVICE TIYAN GU
500 AM CHST SUN SEP 21 2014

GUZ001>004-202000-
MARIANA ISLANDS-

CITY           SKY/WX    TMP DP  RH WIND       PRES   REMARKS
GUAM AIRPORT   MOCLDY    81  77  89 NE5       29.81R
ANDERSEN AFB   NOT AVBL
ROTA AIRPORT   NOT AVBL
TINIAN AP      NOT AVBL
SAIPAN AP      PTCLDY    81  79  94 NE7       29.79S

$$

PMZ161-202000-
REPUBLIC OF PALAU-

CITY           SKY/WX    TMP DP  RH WIND       PRES   REMARKS
KOROR AP       PTCLDY    79  75  89 CALM      29.79S
KOROR WSO      CLOUDY    81  75  83 N3        29.78S

$$

PMZ171>174-202000-
FEDERATED STATES OF MICRONESIA-

CITY           SKY/WX    TMP DP  RH WIND       PRES   REMARKS
YAP AIRPORT    LGT RAIN  77  75  94 NE8       29.78R
CHUUK AP       NOT AVBL
POHNPEI AP     NOT AVBL
POHNPEI WSO    LGT RAIN  75  73  94 SE5       29.82R
KOSRAE AP      NOT AVBL

$$

PMZ181-202000-
REPUBLIC OF THE MARSHALL ISLANDS-

CITY           SKY/WX    TMP DP  RH WIND       PRES   REMARKS
KWAJALEIN AP   CLEAR     81  73  78 CALM      29.80R
MAJURO AP      NOT AVBL
MAJURO WSO     NOT AVBL

$$



USA.gov is the U.S. government's official web portal to all federal, state and local government web resources and services.